Location: Pardubice
(50.0330°N, 15.7830°E)
Time: 09:56:13
(UTC+02:00)

Tiros 1 despin weight - Visible Passes

Search period start: 07 October 2024 00:00
Search period end: 17 October 2024 00:00
Orbit: 573 x 615 km, 48.2° (Epoch: 06 October)

Date Brightness Start Highest point End Pass type
(mag) Time Alt. Az. Time Alt. Az. Time Alt. Az.
07 Oct ? 19:46:20 10° SW 19:50:14 33° SSE 19:51:42 26° ESE visible
07 Oct ? 21:26:33 10° WSW 21:28:15 23° WSW 21:28:15 23° WSW visible
08 Oct ? 19:54:28 10° SW 19:58:36 44° SSE 19:59:56 33° ESE visible
08 Oct ? 21:35:02 10° W 21:36:28 21° W 21:36:28 21° W visible
09 Oct ? 20:02:45 10° WSW 20:06:59 56° SSE 20:08:05 42° ESE visible
09 Oct ? 21:43:29 10° W 21:44:37 18° W 21:44:37 18° W visible
10 Oct ? 20:11:05 10° WSW 20:15:23 65° S 20:16:08 53° ESE visible
10 Oct ? 21:51:55 10° W 21:52:40 15° W 21:52:40 15° W visible
11 Oct ? 20:19:27 10° W 20:23:46 70° S 20:24:08 66° SE visible
11 Oct ? 22:00:20 10° W 22:00:39 12° W 22:00:39 12° W visible
12 Oct ? 18:47:06 10° WSW 18:51:19 53° SSE 18:55:32 10° E visible
12 Oct ? 20:27:48 10° W 20:32:04 69° S 20:32:04 69° S visible
13 Oct ? 18:55:20 10° WSW 18:59:36 63° S 19:03:26 13° E visible
13 Oct ? 20:36:08 10° W 20:39:58 59° SW 20:39:58 59° SW visible
14 Oct ? 19:03:35 10° WSW 19:07:52 69° S 19:11:18 16° E visible
14 Oct ? 20:44:27 10° W 20:47:50 45° WSW 20:47:50 45° WSW visible
15 Oct ? 19:11:50 10° W 19:16:08 70° S 19:19:10 19° ESE visible
15 Oct ? 20:52:45 10° W 20:55:41 34° WSW 20:55:41 34° WSW visible
16 Oct ? 19:20:04 10° W 19:24:21 65° S 19:27:00 22° ESE visible
16 Oct ? 21:01:05 10° W 21:03:32 26° WSW 21:03:32 26° WSW visible
